Weather History for Peoria, IL

Change the Weather History Date:

Sunday, October 7, 2012

  Actual Average Record
Temperature  
Mean Temperature 43 °F 57 °F  
Max Temperature 51 °F 68 °F 90 °F (2007)
Min Temperature 34 °F 46 °F 28 °F (1952)
Degree Days  
Heating Degree Days 22 9  
Month to date heating degree days 88 56  
Since 1 July heating degree days 192 146  
Cooling Degree Days 0 1  
Month to date cooling degree days 0 7  
Year to date cooling degree days 1368 1031  
Moisture  
Dew Point 28 °F    
Average Humidity 57    
Maximum Humidity 82    
Minimum Humidity 32    
Precipitation  
Precipitation 0.00 in 0.09 in 2.52 in (1884)
Month to date precipitation 0.38 0.62  
Year to date precipitation 20.58 28.72  
Snow  
Snow 0.00 in 0.00 in 0.00 in ()
Month to date snowfall 0.0 0.0  
Since 1 July snowfall 0.0 0.0  
Since 1 September snowfall 0.0 0.0  
Snow Depth 0.00 in    
Sea Level Pressure  
Sea Level Pressure 30.21 in    
Wind  
Wind Speed 4 mph (WNW)    
Max Wind Speed 14 mph    
Max Gust Speed 17 mph    
Visibility 10 miles    
Events      
T = Trace of Precipitation, MM = Missing Value Source: NWS Daily Summary

Daily Weather History Graph

Daily Weather History Graph

Search for Another Location

Airport:

Trip Planner

Search our weather history database for the weather conditions in past years. The results will help you decide how hot, cold, wet, or windy it might be!

Date:

Astronomy

Oct. 07, 2012 Rise Set
Actual Time 7:01 AM CDT 6:30 PM CDT
Civil Twilight 6:34 AM CDT 6:57 PM CDT
Nautical Twilight 6:02 AM CDT 7:29 PM CDT
Astronomical Twilight 5:31 AM CDT 8:00 PM CDT
Moon 11:40 PM CDT (10/7) 1:40 PM CDT (10/7)
Length of Visible Light 12h 22m
Length of Day
11h 28m
Waning Gibbous, 56% of the Moon is Illuminated
Oct 7
Waning Gibbous
Oct 8
Last Quarter
Oct 15
New
Oct 21
First Quarter
Oct 29
Full

Hourly Weather History & Observations

Time (CDT) Temp. Windchill Dew Point Humidity Pressure Visibility Wind Dir Wind Speed Gust Speed Precip Events Conditions
12:54 AM 41.0 °F 38.0 °F 30.9 °F 67% 30.23 in 10.0 mi WNW 4.6 mph - N/A   Overcast
1:54 AM 41.0 °F 38.0 °F 30.2 °F 65% 30.22 in 10.0 mi WNW 4.6 mph - N/A   Overcast
2:54 AM 39.9 °F 37.8 °F 32.0 °F 73% 30.23 in 10.0 mi NW 3.5 mph - N/A   Overcast
3:54 AM 39.9 °F - 30.9 °F 70% 30.22 in 10.0 mi Calm Calm - N/A   Overcast
4:54 AM 39.9 °F 36.7 °F 30.9 °F 70% 30.22 in 10.0 mi WNW 4.6 mph - N/A   Overcast
5:54 AM 39.0 °F 36.8 °F 30.9 °F 73% 30.22 in 10.0 mi West 3.5 mph - N/A   Overcast
6:54 AM 39.0 °F 35.7 °F 30.0 °F 70% 30.22 in 10.0 mi West 4.6 mph - N/A   Overcast
7:54 AM 39.0 °F 34.8 °F 30.0 °F 70% 30.23 in 10.0 mi WNW 5.8 mph - N/A   Overcast
8:54 AM 41.0 °F 37.1 °F 28.9 °F 62% 30.24 in 10.0 mi Variable 5.8 mph - N/A   Mostly Cloudy
9:54 AM 44.1 °F 39.0 °F 28.9 °F 55% 30.25 in 10.0 mi WNW 9.2 mph 16.1 mph N/A   Clear
10:54 AM 45.0 °F - 27.0 °F 49% 30.26 in 10.0 mi Calm Calm - N/A   Scattered Clouds
11:54 AM 45.0 °F 41.2 °F 24.1 °F 44% 30.25 in 10.0 mi WNW 6.9 mph - N/A   Overcast
12:54 PM 48.9 °F - 25.0 °F 39% 30.24 in 10.0 mi West 8.1 mph - N/A   Mostly Cloudy
1:54 PM 48.0 °F - 23.0 °F 37% 30.22 in 10.0 mi NW 5.8 mph - N/A   Partly Cloudy
2:54 PM 50.0 °F - 23.0 °F 35% 30.19 in 10.0 mi West 8.1 mph - N/A   Clear
3:54 PM 50.0 °F - 21.9 °F 33% 30.17 in 10.0 mi Variable 4.6 mph 16.1 mph N/A   Clear
4:54 PM 50.0 °F - 21.9 °F 33% 30.17 in 10.0 mi WNW 5.8 mph - N/A   Clear
5:54 PM 48.9 °F - 21.0 °F 33% 30.17 in 10.0 mi WNW 3.5 mph - N/A   Clear
6:54 PM 43.0 °F - 25.0 °F 49% 30.18 in 10.0 mi Calm Calm - N/A   Clear
7:54 PM 39.0 °F - 28.0 °F 65% 30.19 in 10.0 mi Calm Calm - N/A   Clear
8:54 PM 37.0 °F - 28.9 °F 73% 30.19 in 10.0 mi Calm Calm - N/A   Clear
9:54 PM 36.0 °F - 30.0 °F 79% 30.19 in 10.0 mi Calm Calm - N/A   Clear
10:54 PM 35.1 °F - 30.0 °F 82% 30.19 in 10.0 mi Calm Calm - N/A   Clear
11:54 PM 35.1 °F - 28.9 °F 78% 30.19 in 10.0 mi Calm Calm - N/A   Clear